User: anonymous   Login
Location: Stigler
(35.2540°N, 95.1230°W)
Time: 17:37:03
(UTC-05:00)
Language:

Cosmos 1805 - Orbit

View from above orbital plane
View from above orbital plane
View from above satellite
View from above satellite

Ground track
Ground track

The orbit data is extracted from the following two-line orbital elements,

1 17191U 86097A   18114.02716105  .00000090  00000-0  34268-5 0  9993
2 17191  82.4736  83.2555 0006326  85.1628 275.0325 15.12103373710611
Epoch (UTC): 24 April 2018 00:39:06
Eccentricity: 0.0006326
inclination: 82.4736°
perigee height: 525 km
apogee height: 534 km
right ascension of ascending node: 83.2555°
argument of perigee: 85.1628°
revolutions per day: 15.12103373
mean anomaly at epoch: 275.0325°
orbit number at epoch: 71061

The dashed part of the orbit path shows where the satellite is in the earth's shadow,  

DLR